Time,TemperatureF,DewpointF,PressureIn,WindDirection,WindDirectionDegrees,WindSpeedMPH,WindSpeedGustMPH,Humidity,HourlyPrecipIn,Conditions,Clouds,dailyrainin,SoftwareType,DateUTC
2013-04-30 00:01:00,63.9,56.5,30.02,North,0,0.0,0.0,77,0.00,,,0.00,WUHU216HW,2013-04-30 05:01:00,
2013-04-30 00:06:00,63.7,56.7,30.02,North,0,0.0,0.0,78,0.00,,,0.00,WUHU216HW,2013-04-30 05:06:00,
2013-04-30 00:11:00,63.7,56.7,30.02,North,0,0.0,0.0,78,0.00,,,0.00,WUHU216HW,2013-04-30 05:11:00,
2013-04-30 00:16:00,63.7,56.7,30.02,North,0,0.0,0.0,78,0.00,,,0.00,WUHU216HW,2013-04-30 05:16:00,
2013-04-30 00:21:00,63.7,56.7,30.02,North,0,0.0,0.0,78,0.00,,,0.00,WUHU216HW,2013-04-30 05:21:00,
2013-04-30 00:26:00,63.7,56.7,30.02,North,0,0.0,0.0,78,0.00,,,0.00,WUHU216HW,2013-04-30 05:26:00,
2013-04-30 00:31:00,63.7,56.7,30.02,North,0,0.0,0.0,78,0.00,,,0.00,WUHU216HW,2013-04-30 05:31:00,
2013-04-30 00:36:00,63.7,56.7,30.02,North,0,0.0,0.0,78,0.00,,,0.00,WUHU216HW,2013-04-30 05:36:00,
2013-04-30 00:41:00,63.5,56.5,30.02,North,0,0.0,0.0,78,0.00,,,0.00,WUHU216HW,2013-04-30 05:41:00,
2013-04-30 00:46:00,63.4,56.3,30.01,North,0,0.0,0.0,78,0.00,,,0.00,WUHU216HW,2013-04-30 05:46:00,
2013-04-30 00:51:00,63.4,56.0,30.01,North,0,0.0,0.0,77,0.00,,,0.00,WUHU216HW,2013-04-30 05:51:00,
2013-04-30 00:56:00,63.0,56.0,30.01,North,0,0.0,0.0,78,0.00,,,0.00,WUHU216HW,2013-04-30 05:56:00,
2013-04-30 01:01:00,63.0,56.0,30.01,North,0,0.0,0.0,78,0.00,,,0.00,WUHU216HW,2013-04-30 06:01:00,
2013-04-30 01:06:00,63.0,56.0,30.01,North,0,0.0,0.0,78,0.00,,,0.00,WUHU216HW,2013-04-30 06:06:00,
2013-04-30 01:11:00,62.8,55.8,30.01,North,0,0.0,0.0,78,0.00,,,0.00,WUHU216HW,2013-04-30 06:11:00,
2013-04-30 01:16:00,62.6,55.6,30.01,North,0,0.0,0.0,78,0.00,,,0.00,WUHU216HW,2013-04-30 06:16:00,
2013-04-30 01:21:00,62.5,55.8,30.01,North,0,0.0,0.0,79,0.00,,,0.00,WUHU216HW,2013-04-30 06:21:00,
2013-04-30 01:26:00,62.5,55.8,30.00,North,0,0.0,0.0,79,0.00,,,0.00,WUHU216HW,2013-04-30 06:26:00,
2013-04-30 01:31:00,62.3,55.6,30.01,North,0,0.0,0.0,79,0.00,,,0.00,WUHU216HW,2013-04-30 06:31:00,
2013-04-30 01:36:00,62.3,55.6,30.01,North,0,0.0,0.0,79,0.00,,,0.00,WUHU216HW,2013-04-30 06:36:00,
2013-04-30 01:41:00,62.3,55.6,30.02,North,0,0.0,0.0,79,0.00,,,0.00,WUHU216HW,2013-04-30 06:41:00,
2013-04-30 01:46:00,62.3,55.6,30.01,North,0,0.0,0.0,79,0.00,,,0.00,WUHU216HW,2013-04-30 06:46:00,
2013-04-30 01:51:00,62.1,55.9,30.01,North,0,0.0,0.0,80,0.00,,,0.00,WUHU216HW,2013-04-30 06:51:00,
2013-04-30 01:56:00,61.7,55.5,30.01,North,0,0.0,0.0,80,0.00,,,0.00,WUHU216HW,2013-04-30 06:56:00,
2013-04-30 02:01:00,61.6,55.4,30.01,North,0,0.0,0.0,80,0.00,,,0.00,WUHU216HW,2013-04-30 07:01:00,
2013-04-30 02:06:00,61.4,55.2,30.01,North,0,0.0,0.0,80,0.00,,,0.00,WUHU216HW,2013-04-30 07:06:00,
2013-04-30 02:11:00,61.2,55.1,30.01,North,0,0.0,0.0,80,0.00,,,0.00,WUHU216HW,2013-04-30 07:11:00,
2013-04-30 02:16:00,61.0,55.2,30.00,North,0,0.0,0.0,81,0.00,,,0.00,WUHU216HW,2013-04-30 07:16:00,
2013-04-30 02:21:00,61.0,55.2,30.00,North,0,0.0,0.0,81,0.00,,,0.00,WUHU216HW,2013-04-30 07:21:00,
2013-04-30 02:26:00,60.8,55.1,30.00,North,0,0.0,0.0,81,0.00,,,0.00,WUHU216HW,2013-04-30 07:26:00,
2013-04-30 02:31:00,60.8,55.1,30.00,North,0,0.0,0.0,81,0.00,,,0.00,WUHU216HW,2013-04-30 07:31:00,
2013-04-30 02:36:00,60.8,55.4,30.00,North,0,0.0,0.0,82,0.00,,,0.00,WUHU216HW,2013-04-30 07:36:00,
2013-04-30 02:41:00,60.7,54.9,30.00,North,0,0.0,0.0,81,0.00,,,0.00,WUHU216HW,2013-04-30 07:41:00,
2013-04-30 02:46:00,60.7,54.9,30.01,North,0,0.0,0.0,81,0.00,,,0.00,WUHU216HW,2013-04-30 07:46:00,
2013-04-30 02:51:00,60.5,55.0,30.01,North,0,0.0,0.0,82,0.00,,,0.00,WUHU216HW,2013-04-30 07:51:00,
2013-04-30 02:56:00,60.5,55.4,30.01,North,0,0.0,0.0,83,0.00,,,0.00,WUHU216HW,2013-04-30 07:56:00,
2013-04-30 03:01:00,60.3,54.8,30.01,North,0,0.0,0.0,82,0.00,,,0.00,WUHU216HW,2013-04-30 08:01:00,
2013-04-30 03:06:00,60.3,55.2,30.02,North,0,0.0,0.0,83,0.00,,,0.00,WUHU216HW,2013-04-30 08:06:00,
2013-04-30 03:11:00,60.5,55.4,30.01,North,0,0.0,0.0,83,0.00,,,0.00,WUHU216HW,2013-04-30 08:11:00,
2013-04-30 03:16:00,60.5,55.4,30.02,North,0,0.0,0.0,83,0.00,,,0.00,WUHU216HW,2013-04-30 08:16:00,
2013-04-30 03:21:00,60.8,55.7,30.02,North,0,0.0,0.0,83,0.00,,,0.00,WUHU216HW,2013-04-30 08:21:00,
2013-04-30 03:26:00,60.8,55.7,30.02,North,0,0.0,0.0,83,0.00,,,0.00,WUHU216HW,2013-04-30 08:26:00,
2013-04-30 03:31:00,60.8,55.4,30.02,North,0,0.0,0.0,82,0.00,,,0.00,WUHU216HW,2013-04-30 08:31:00,
2013-04-30 03:36:00,61.0,55.5,30.02,North,0,0.0,0.0,82,0.00,,,0.00,WUHU216HW,2013-04-30 08:36:00,
2013-04-30 03:41:00,61.0,55.9,30.02,North,0,0.0,0.0,83,0.00,,,0.00,WUHU216HW,2013-04-30 08:41:00,
2013-04-30 03:46:00,61.0,55.9,30.02,North,0,0.0,0.0,83,0.00,,,0.00,WUHU216HW,2013-04-30 08:46:00,
2013-04-30 03:51:00,61.2,56.1,30.02,North,0,0.0,0.0,83,0.00,,,0.00,WUHU216HW,2013-04-30 08:51:00,
2013-04-30 03:56:00,61.2,56.1,30.02,North,0,0.0,0.0,83,0.00,,,0.00,WUHU216HW,2013-04-30 08:56:00,
2013-04-30 04:01:00,61.2,56.1,30.01,North,0,0.0,0.0,83,0.00,,,0.00,WUHU216HW,2013-04-30 09:01:00,
2013-04-30 04:06:00,61.4,56.2,30.01,North,0,0.0,0.0,83,0.00,,,0.00,WUHU216HW,2013-04-30 09:06:00,
2013-04-30 04:11:00,61.6,56.3,30.01,North,0,0.0,0.0,83,0.00,,,0.00,WUHU216HW,2013-04-30 09:11:00,
2013-04-30 04:17:00,61.6,56.3,30.01,North,0,0.0,0.0,83,0.00,,,0.00,WUHU216HW,2013-04-30 09:17:00,
2013-04-30 04:22:00,61.6,56.3,30.01,North,0,0.0,0.0,83,0.00,,,0.00,WUHU216HW,2013-04-30 09:22:00,
2013-04-30 04:27:00,61.6,56.3,30.02,North,0,0.0,0.0,83,0.00,,,0.00,WUHU216HW,2013-04-30 09:27:00,
2013-04-30 04:32:00,61.9,56.7,30.02,North,0,0.0,0.0,83,0.00,,,0.00,WUHU216HW,2013-04-30 09:32:00,
2013-04-30 04:37:00,62.3,57.1,30.01,North,0,0.0,0.0,83,0.00,,,0.00,WUHU216HW,2013-04-30 09:37:00,
2013-04-30 04:42:00,62.3,56.7,30.02,North,0,0.0,0.0,82,0.00,,,0.00,WUHU216HW,2013-04-30 09:42:00,
2013-04-30 04:47:00,62.6,57.1,30.02,North,0,0.0,0.0,82,0.00,,,0.00,WUHU216HW,2013-04-30 09:47:00,
2013-04-30 04:52:00,62.8,57.3,30.02,North,0,0.0,0.0,82,0.00,,,0.00,WUHU216HW,2013-04-30 09:52:00,
2013-04-30 04:57:00,62.6,57.1,30.02,North,0,0.0,0.0,82,0.00,,,0.00,WUHU216HW,2013-04-30 09:57:00,
2013-04-30 05:02:00,62.5,56.5,30.03,North,0,0.0,0.0,81,0.00,,,0.00,WUHU216HW,2013-04-30 10:02:00,
2013-04-30 05:07:00,62.3,56.7,30.03,North,0,0.0,0.0,82,0.00,,,0.00,WUHU216HW,2013-04-30 10:07:00,
2013-04-30 05:12:00,62.3,56.7,30.03,North,0,0.0,0.0,82,0.00,,,0.00,WUHU216HW,2013-04-30 10:12:00,
2013-04-30 05:17:00,62.1,56.5,30.03,North,0,0.0,0.0,82,0.00,,,0.00,WUHU216HW,2013-04-30 10:17:00,
2013-04-30 05:22:00,61.9,56.7,30.03,North,0,0.0,0.0,83,0.00,,,0.00,WUHU216HW,2013-04-30 10:22:00,
2013-04-30 05:27:00,61.9,56.7,30.03,North,0,0.0,0.0,83,0.00,,,0.00,WUHU216HW,2013-04-30 10:27:00,
2013-04-30 05:32:00,62.1,56.9,30.03,North,0,0.0,0.0,83,0.00,,,0.00,WUHU216HW,2013-04-30 10:32:00,
2013-04-30 05:37:00,62.5,57.3,30.03,North,0,0.0,0.0,83,0.00,,,0.00,WUHU216HW,2013-04-30 10:37:00,
2013-04-30 05:42:00,62.6,57.1,30.04,North,0,0.0,0.0,82,0.00,,,0.00,WUHU216HW,2013-04-30 10:42:00,
2013-04-30 05:47:00,62.6,57.3,30.04,North,0,0.0,0.0,83,0.00,,,0.00,WUHU216HW,2013-04-30 10:47:00,
2013-04-30 05:52:00,62.6,57.3,30.04,North,0,0.0,0.0,83,0.00,,,0.00,WUHU216HW,2013-04-30 10:52:00,
2013-04-30 05:57:00,62.6,57.3,30.04,North,0,0.0,0.0,83,0.00,,,0.00,WUHU216HW,2013-04-30 10:57:00,
2013-04-30 06:02:00,62.6,57.3,30.04,North,0,0.0,0.0,83,0.00,,,0.00,WUHU216HW,2013-04-30 11:02:00,
2013-04-30 06:07:00,62.6,57.3,30.04,North,0,0.0,0.0,83,0.00,,,0.00,WUHU216HW,2013-04-30 11:07:00,
2013-04-30 06:12:00,62.5,57.3,30.04,North,0,0.0,0.0,83,0.00,,,0.00,WUHU216HW,2013-04-30 11:12:00,
2013-04-30 06:17:00,62.5,57.3,30.04,North,0,0.0,0.0,83,0.00,,,0.00,WUHU216HW,2013-04-30 11:17:00,
2013-04-30 06:22:00,62.5,57.3,30.04,North,0,0.0,0.0,83,0.00,,,0.00,WUHU216HW,2013-04-30 11:22:00,
2013-04-30 06:27:00,62.3,57.1,30.04,North,0,0.0,0.0,83,0.00,,,0.00,WUHU216HW,2013-04-30 11:27:00,
2013-04-30 06:32:00,62.5,57.3,30.04,North,0,0.0,0.0,83,0.00,,,0.00,WUHU216HW,2013-04-30 11:32:00,
2013-04-30 06:37:00,62.8,57.5,30.04,North,0,0.0,0.0,83,0.00,,,0.00,WUHU216HW,2013-04-30 11:37:00,
2013-04-30 06:42:00,63.0,57.7,30.05,North,0,0.0,0.0,83,0.00,,,0.00,WUHU216HW,2013-04-30 11:42:00,
2013-04-30 06:47:00,63.4,58.1,30.05,North,0,0.0,0.0,83,0.00,,,0.00,WUHU216HW,2013-04-30 11:47:00,
2013-04-30 06:52:00,63.9,58.3,30.05,North,0,0.0,0.0,82,0.00,,,0.00,WUHU216HW,2013-04-30 11:52:00,
2013-04-30 06:57:00,65.0,59.7,30.05,North,0,0.0,0.0,83,0.00,,,0.00,WUHU216HW,2013-04-30 11:57:00,
2013-04-30 07:02:00,66.2,60.3,30.05,North,0,0.0,0.0,81,0.00,,,0.00,WUHU216HW,2013-04-30 12:02:00,
2013-04-30 07:07:00,67.5,60.9,30.05,North,0,0.0,0.0,79,0.00,,,0.00,WUHU216HW,2013-04-30 12:07:00,
2013-04-30 07:12:00,68.8,61.3,30.05,North,0,0.0,0.0,77,0.00,,,0.00,WUHU216HW,2013-04-30 12:12:00,
2013-04-30 07:17:00,70.0,61.3,30.05,North,0,0.0,0.0,74,0.00,,,0.00,WUHU216HW,2013-04-30 12:17:00,
2013-04-30 07:22:00,69.7,60.9,30.05,North,0,0.0,0.0,74,0.00,,,0.00,WUHU216HW,2013-04-30 12:22:00,
2013-04-30 07:27:00,69.1,60.5,30.04,North,0,0.0,0.0,74,0.00,,,0.00,WUHU216HW,2013-04-30 12:27:00,
2013-04-30 07:32:00,68.9,60.3,30.04,North,0,0.0,0.0,74,0.00,,,0.00,WUHU216HW,2013-04-30 12:32:00,
2013-04-30 07:37:00,68.9,60.3,30.04,North,0,0.0,0.0,74,0.00,,,0.00,WUHU216HW,2013-04-30 12:37:00,
2013-04-30 07:42:00,68.6,59.9,30.05,North,0,0.0,0.0,74,0.00,,,0.00,WUHU216HW,2013-04-30 12:42:00,
2013-04-30 07:47:00,68.6,59.9,30.05,North,0,0.0,0.0,74,0.00,,,0.00,WUHU216HW,2013-04-30 12:47:00,
2013-04-30 07:52:00,68.6,59.9,30.04,North,0,0.0,0.0,74,0.00,,,0.00,WUHU216HW,2013-04-30 12:52:00,
2013-04-30 07:57:00,68.8,60.1,30.04,North,0,0.0,0.0,74,0.00,,,0.00,WUHU216HW,2013-04-30 12:57:00,
2013-04-30 08:02:00,69.1,60.5,30.05,North,0,0.0,0.0,74,0.00,,,0.00,WUHU216HW,2013-04-30 13:02:00,
2013-04-30 08:07:00,69.3,60.6,30.05,North,0,0.0,0.0,74,0.00,,,0.00,WUHU216HW,2013-04-30 13:07:00,
2013-04-30 08:12:00,69.5,60.4,30.06,North,0,0.0,0.0,73,0.00,,,0.00,WUHU216HW,2013-04-30 13:12:00,
2013-04-30 08:17:00,70.0,60.9,30.05,North,0,0.0,0.0,73,0.00,,,0.00,WUHU216HW,2013-04-30 13:17:00,
2013-04-30 08:22:00,72.0,62.9,30.05,North,0,0.0,0.0,73,0.00,,,0.00,WUHU216HW,2013-04-30 13:22:00,
2013-04-30 08:27:00,75.4,64.1,30.05,North,0,0.0,0.0,68,0.00,,,0.00,WUHU216HW,2013-04-30 13:27:00,
2013-04-30 08:32:00,76.3,63.6,30.05,North,0,0.0,0.0,65,0.00,,,0.00,WUHU216HW,2013-04-30 13:32:00,
2013-04-30 08:37:00,75.4,62.8,30.05,North,0,0.0,0.0,65,0.00,,,0.00,WUHU216HW,2013-04-30 13:37:00,
2013-04-30 08:42:00,74.2,62.1,30.05,North,0,0.0,0.0,66,0.00,,,0.00,WUHU216HW,2013-04-30 13:42:00,
2013-04-30 08:47:00,72.9,60.8,30.05,North,0,0.0,0.0,66,0.00,,,0.00,WUHU216HW,2013-04-30 13:47:00,
2013-04-30 08:52:00,73.8,62.2,30.04,North,0,0.0,0.0,67,0.00,,,0.00,WUHU216HW,2013-04-30 13:52:00,
2013-04-30 08:57:00,76.1,63.9,30.04,North,0,0.0,0.0,66,0.00,,,0.00,WUHU216HW,2013-04-30 13:57:00,
2013-04-30 09:02:00,77.0,62.6,30.05,North,0,0.0,0.0,61,0.00,,,0.00,WUHU216HW,2013-04-30 14:02:00,
2013-04-30 09:07:00,77.6,62.6,30.05,North,0,0.0,0.0,60,0.00,,,0.00,WUHU216HW,2013-04-30 14:07:00,
2013-04-30 09:12:00,78.5,63.5,30.05,North,0,0.0,0.0,60,0.00,,,0.00,WUHU216HW,2013-04-30 14:12:00,
2013-04-30 09:17:00,78.7,62.2,30.05,North,0,0.0,0.0,57,0.00,,,0.00,WUHU216HW,2013-04-30 14:17:00,
2013-04-30 09:22:00,78.5,61.5,30.05,North,0,0.0,0.0,56,0.00,,,0.00,WUHU216HW,2013-04-30 14:22:00,
2013-04-30 09:27:00,78.8,61.8,30.04,North,0,0.0,0.0,56,0.00,,,0.00,WUHU216HW,2013-04-30 14:27:00,
2013-04-30 09:32:00,78.8,60.8,30.05,North,0,0.0,0.0,54,0.00,,,0.00,WUHU216HW,2013-04-30 14:32:00,
2013-04-30 09:37:00,79.2,61.7,30.05,North,0,0.0,0.0,55,0.00,,,0.00,WUHU216HW,2013-04-30 14:37:00,
2013-04-30 09:42:00,79.7,61.6,30.05,North,0,0.0,0.0,54,0.00,,,0.00,WUHU216HW,2013-04-30 14:42:00,
2013-04-30 09:47:00,80.3,61.6,30.05,North,0,0.0,0.0,53,0.00,,,0.00,WUHU216HW,2013-04-30 14:47:00,
2013-04-30 09:52:00,80.6,60.3,30.05,North,0,0.0,0.0,50,0.00,,,0.00,WUHU216HW,2013-04-30 14:52:00,
2013-04-30 09:57:00,80.6,60.9,30.05,North,0,0.0,0.0,51,0.00,,,0.00,WUHU216HW,2013-04-30 14:57:00,
2013-04-30 10:02:00,80.6,60.3,30.05,North,0,0.0,0.0,50,0.00,,,0.00,WUHU216HW,2013-04-30 15:02:00,
2013-04-30 10:07:00,80.8,60.5,30.05,North,0,0.0,0.0,50,0.00,,,0.00,WUHU216HW,2013-04-30 15:07:00,
2013-04-30 10:12:00,81.2,59.0,30.05,North,0,0.0,0.0,47,0.00,,,0.00,WUHU216HW,2013-04-30 15:12:00,
2013-04-30 10:17:00,81.7,60.0,30.05,North,0,0.0,0.0,48,0.00,,,0.00,WUHU216HW,2013-04-30 15:17:00,
2013-04-30 10:22:00,82.1,59.8,30.06,North,0,0.0,0.0,47,0.00,,,0.00,WUHU216HW,2013-04-30 15:22:00,
2013-04-30 10:27:00,82.4,58.9,30.06,North,0,0.0,0.0,45,0.00,,,0.00,WUHU216HW,2013-04-30 15:27:00,
2013-04-30 10:32:00,82.4,58.9,30.06,North,0,0.0,0.0,45,0.00,,,0.00,WUHU216HW,2013-04-30 15:32:00,
2013-04-30 10:37:00,81.9,58.4,30.06,North,0,0.0,0.0,45,0.00,,,0.00,WUHU216HW,2013-04-30 15:37:00,
2013-04-30 10:42:00,81.9,58.4,30.06,North,0,0.0,0.0,45,0.00,,,0.00,WUHU216HW,2013-04-30 15:42:00,
2013-04-30 10:47:00,82.1,58.0,30.06,North,0,0.0,0.0,44,0.00,,,0.00,WUHU216HW,2013-04-30 15:47:00,
2013-04-30 10:52:00,82.1,58.0,30.06,North,0,0.0,0.0,44,0.00,,,0.00,WUHU216HW,2013-04-30 15:52:00,
2013-04-30 10:57:00,81.7,55.8,30.06,North,0,0.0,0.0,41,0.00,,,0.00,WUHU216HW,2013-04-30 15:57:00,
2013-04-30 11:02:00,81.5,56.3,30.06,North,0,0.0,0.0,42,0.00,,,0.00,WUHU216HW,2013-04-30 16:02:00,
2013-04-30 11:07:00,81.7,57.0,30.06,North,0,0.0,0.0,43,0.00,,,0.00,WUHU216HW,2013-04-30 16:07:00,
2013-04-30 11:12:00,81.5,55.6,30.06,North,0,0.0,0.0,41,0.00,,,0.00,WUHU216HW,2013-04-30 16:12:00,
2013-04-30 11:17:00,81.9,56.5,30.07,North,0,0.0,0.0,42,0.00,,,0.00,WUHU216HW,2013-04-30 16:17:00,
2013-04-30 11:22:00,82.3,56.9,30.07,North,0,0.0,0.0,42,0.00,,,0.00,WUHU216HW,2013-04-30 16:22:00,
2013-04-30 11:27:00,82.3,56.3,30.07,North,0,0.0,0.0,41,0.00,,,0.00,WUHU216HW,2013-04-30 16:27:00,
2013-04-30 11:32:00,82.4,56.4,30.07,North,0,0.0,0.0,41,0.00,,,0.00,WUHU216HW,2013-04-30 16:32:00,
2013-04-30 11:37:00,83.2,57.1,30.07,North,0,0.0,0.0,41,0.00,,,0.00,WUHU216HW,2013-04-30 16:37:00,
2013-04-30 11:42:00,83.9,57.7,30.07,North,0,0.0,0.0,41,0.00,,,0.00,WUHU216HW,2013-04-30 16:42:00,
2013-04-30 11:47:00,84.1,57.9,30.07,North,0,0.0,0.0,41,0.00,,,0.00,WUHU216HW,2013-04-30 16:47:00,
2013-04-30 11:52:00,84.2,58.1,30.07,North,0,0.0,0.0,41,0.00,,,0.00,WUHU216HW,2013-04-30 16:52:00,
2013-04-30 11:57:00,84.8,58.5,30.07,North,0,0.0,0.0,41,0.00,,,0.00,WUHU216HW,2013-04-30 16:57:00,
2013-04-30 12:02:00,84.6,57.8,30.07,North,0,0.0,0.0,40,0.00,,,0.00,WUHU216HW,2013-04-30 17:02:00,
2013-04-30 12:07:00,84.8,57.2,30.07,North,0,0.0,0.0,39,0.00,,,0.00,WUHU216HW,2013-04-30 17:07:00,
2013-04-30 12:12:00,85.3,56.8,30.07,North,0,0.0,0.0,38,0.00,,,0.00,WUHU216HW,2013-04-30 17:12:00,
2013-04-30 12:17:00,86.0,56.7,30.07,North,0,0.0,0.0,37,0.00,,,0.00,WUHU216HW,2013-04-30 17:17:00,
2013-04-30 12:22:00,86.2,55.3,30.07,North,0,0.0,0.0,35,0.00,,,0.00,WUHU216HW,2013-04-30 17:22:00,
2013-04-30 12:27:00,86.8,55.7,30.07,North,0,0.0,0.0,35,0.00,,,0.00,WUHU216HW,2013-04-30 17:27:00,
2013-04-30 12:32:00,86.8,55.7,30.07,North,0,0.0,0.0,35,0.00,,,0.00,WUHU216HW,2013-04-30 17:32:00,
2013-04-30 12:37:00,86.4,56.2,30.08,North,0,0.0,0.0,36,0.00,,,0.00,WUHU216HW,2013-04-30 17:37:00,
2013-04-30 12:42:00,86.2,56.8,30.07,North,0,0.0,0.0,37,0.00,,,0.00,WUHU216HW,2013-04-30 17:42:00,
2013-04-30 12:47:00,85.9,54.9,30.07,North,0,0.0,0.0,35,0.00,,,0.00,WUHU216HW,2013-04-30 17:47:00,
2013-04-30 12:52:00,85.9,54.9,30.07,North,0,0.0,0.0,35,0.00,,,0.00,WUHU216HW,2013-04-30 17:52:00,
2013-04-30 12:57:00,86.2,54.5,30.07,North,0,0.0,0.0,34,0.00,,,0.00,WUHU216HW,2013-04-30 17:57:00,
2013-04-30 13:02:00,86.2,53.6,30.07,North,0,0.0,0.0,33,0.00,,,0.00,WUHU216HW,2013-04-30 18:02:00,
2013-04-30 13:07:00,86.2,54.5,30.07,North,0,0.0,0.0,34,0.00,,,0.00,WUHU216HW,2013-04-30 18:07:00,
2013-04-30 13:12:00,86.0,54.3,30.07,North,0,0.0,0.0,34,0.00,,,0.00,WUHU216HW,2013-04-30 18:12:00,
2013-04-30 13:17:00,86.0,55.1,30.07,North,0,0.0,0.0,35,0.00,,,0.00,WUHU216HW,2013-04-30 18:17:00,
2013-04-30 13:22:00,86.2,55.3,30.07,North,0,0.0,0.0,35,0.00,,,0.00,WUHU216HW,2013-04-30 18:22:00,
2013-04-30 13:27:00,86.6,53.9,30.07,North,0,0.0,0.0,33,0.00,,,0.00,WUHU216HW,2013-04-30 18:27:00,
2013-04-30 13:32:00,86.8,54.9,30.07,North,0,0.0,0.0,34,0.00,,,0.00,WUHU216HW,2013-04-30 18:32:00,
2013-04-30 13:37:00,86.8,54.9,30.07,North,0,0.0,0.0,34,0.00,,,0.00,WUHU216HW,2013-04-30 18:37:00,
2013-04-30 13:42:00,87.1,54.4,30.07,North,0,0.0,0.0,33,0.00,,,0.00,WUHU216HW,2013-04-30 18:42:00,
2013-04-30 13:47:00,86.9,52.7,30.07,North,0,0.0,0.0,31,0.00,,,0.00,WUHU216HW,2013-04-30 18:47:00,
2013-04-30 13:52:00,86.9,52.7,30.07,North,0,0.0,0.0,31,0.00,,,0.00,WUHU216HW,2013-04-30 18:52:00,
2013-04-30 13:57:00,87.1,53.6,30.07,North,0,0.0,0.0,32,0.00,,,0.00,WUHU216HW,2013-04-30 18:57:00,
2013-04-30 14:02:00,87.1,53.6,30.07,North,0,0.0,0.0,32,0.00,,,0.00,WUHU216HW,2013-04-30 19:02:00,
2013-04-30 14:07:00,87.1,52.8,30.07,North,0,0.0,0.0,31,0.00,,,0.00,WUHU216HW,2013-04-30 19:07:00,
2013-04-30 14:12:00,86.9,53.5,30.07,North,0,0.0,0.0,32,0.00,,,0.00,WUHU216HW,2013-04-30 19:12:00,
2013-04-30 14:17:00,86.9,53.5,30.07,North,0,0.0,0.0,32,0.00,,,0.00,WUHU216HW,2013-04-30 19:17:00,
2013-04-30 14:22:00,86.9,53.5,30.07,North,0,0.0,0.0,32,0.00,,,0.00,WUHU216HW,2013-04-30 19:22:00,
2013-04-30 14:27:00,87.1,53.6,30.07,North,0,0.0,0.0,32,0.00,,,0.00,WUHU216HW,2013-04-30 19:27:00,
2013-04-30 14:32:00,87.1,52.0,30.07,North,0,0.0,0.0,30,0.00,,,0.00,WUHU216HW,2013-04-30 19:32:00,
2013-04-30 14:37:00,87.1,52.0,30.07,North,0,0.0,0.0,30,0.00,,,0.00,WUHU216HW,2013-04-30 19:37:00,
2013-04-30 14:42:00,86.9,52.7,30.07,North,0,0.0,0.0,31,0.00,,,0.00,WUHU216HW,2013-04-30 19:42:00,
2013-04-30 14:47:00,87.1,53.6,30.07,North,0,0.0,0.0,32,0.00,,,0.00,WUHU216HW,2013-04-30 19:47:00,
2013-04-30 14:52:00,87.1,53.6,30.07,North,0,0.0,0.0,32,0.00,,,0.00,WUHU216HW,2013-04-30 19:52:00,
2013-04-30 14:57:00,87.1,54.4,30.07,North,0,0.0,0.0,33,0.00,,,0.00,WUHU216HW,2013-04-30 19:57:00,
2013-04-30 15:02:00,87.1,53.6,30.07,North,0,0.0,0.0,32,0.00,,,0.00,WUHU216HW,2013-04-30 20:02:00,
2013-04-30 15:07:00,86.9,54.3,30.07,North,0,0.0,0.0,33,0.00,,,0.00,WUHU216HW,2013-04-30 20:07:00,
2013-04-30 15:12:00,86.9,54.3,30.07,North,0,0.0,0.0,33,0.00,,,0.00,WUHU216HW,2013-04-30 20:12:00,
2013-04-30 15:17:00,87.3,54.5,30.07,North,0,0.0,0.0,33,0.00,,,0.00,WUHU216HW,2013-04-30 20:17:00,
2013-04-30 15:22:00,86.9,53.5,30.07,North,0,0.0,0.0,32,0.00,,,0.00,WUHU216HW,2013-04-30 20:22:00,
2013-04-30 15:27:00,86.8,52.5,30.07,North,0,0.0,0.0,31,0.00,,,0.00,WUHU216HW,2013-04-30 20:27:00,
2013-04-30 15:32:00,86.8,54.1,30.07,North,0,0.0,0.0,33,0.00,,,0.00,WUHU216HW,2013-04-30 20:32:00,
2013-04-30 15:37:00,86.8,54.1,30.07,North,0,0.0,0.0,33,0.00,,,0.00,WUHU216HW,2013-04-30 20:37:00,
2013-04-30 15:42:00,86.8,53.3,30.07,North,0,0.0,0.0,32,0.00,,,0.00,WUHU216HW,2013-04-30 20:42:00,
2013-04-30 15:47:00,86.8,54.1,30.07,North,0,0.0,0.0,33,0.00,,,0.00,WUHU216HW,2013-04-30 20:47:00,
2013-04-30 15:52:00,86.8,53.3,30.07,North,0,0.0,0.0,32,0.00,,,0.00,WUHU216HW,2013-04-30 20:52:00,
2013-04-30 15:57:00,86.6,53.9,30.07,North,0,0.0,0.0,33,0.00,,,0.00,WUHU216HW,2013-04-30 20:57:00,
2013-04-30 16:02:00,86.6,54.7,30.07,North,0,0.0,0.0,34,0.00,,,0.00,WUHU216HW,2013-04-30 21:02:00,
2013-04-30 16:07:00,86.8,54.9,30.07,North,0,0.0,0.0,34,0.00,,,0.00,WUHU216HW,2013-04-30 21:07:00,
2013-04-30 16:12:00,86.8,53.3,30.07,North,0,0.0,0.0,32,0.00,,,0.00,WUHU216HW,2013-04-30 21:12:00,
2013-04-30 16:17:00,86.6,52.4,30.07,North,0,0.0,0.0,31,0.00,,,0.00,WUHU216HW,2013-04-30 21:17:00,
2013-04-30 16:22:00,86.2,52.0,30.07,North,0,0.0,0.0,31,0.00,,,0.00,WUHU216HW,2013-04-30 21:22:00,
2013-04-30 16:27:00,86.2,52.8,30.07,North,0,0.0,0.0,32,0.00,,,0.00,WUHU216HW,2013-04-30 21:27:00,
2013-04-30 16:32:00,86.0,52.8,30.08,North,0,0.0,0.0,32,0.00,,,0.00,WUHU216HW,2013-04-30 21:32:00,
2013-04-30 16:37:00,85.9,52.6,30.07,North,0,0.0,0.0,32,0.00,,,0.00,WUHU216HW,2013-04-30 21:37:00,
2013-04-30 16:42:00,85.7,52.4,30.08,North,0,0.0,0.0,32,0.00,,,0.00,WUHU216HW,2013-04-30 21:42:00,
2013-04-30 16:47:00,85.9,53.4,30.08,North,0,0.0,0.0,33,0.00,,,0.00,WUHU216HW,2013-04-30 21:47:00,
2013-04-30 16:52:00,85.7,53.2,30.08,North,0,0.0,0.0,33,0.00,,,0.00,WUHU216HW,2013-04-30 21:52:00,
2013-04-30 16:57:00,85.5,51.4,30.08,North,0,0.0,0.0,31,0.00,,,0.00,WUHU216HW,2013-04-30 21:57:00,
2013-04-30 17:02:00,85.3,52.0,30.09,North,0,0.0,0.0,32,0.00,,,0.00,WUHU216HW,2013-04-30 22:02:00,
2013-04-30 17:07:00,85.3,52.0,30.09,North,0,0.0,0.0,32,0.00,,,0.00,WUHU216HW,2013-04-30 22:07:00,
2013-04-30 17:12:00,85.3,51.3,30.09,North,0,0.0,0.0,31,0.00,,,0.00,WUHU216HW,2013-04-30 22:12:00,
2013-04-30 17:17:00,85.1,50.3,30.09,North,0,0.0,0.0,30,0.00,,,0.00,WUHU216HW,2013-04-30 22:17:00,
2013-04-30 17:22:00,85.0,50.1,30.09,North,0,0.0,0.0,30,0.00,,,0.00,WUHU216HW,2013-04-30 22:22:00,
2013-04-30 17:27:00,84.8,50.8,30.09,North,0,0.0,0.0,31,0.00,,,0.00,WUHU216HW,2013-04-30 22:27:00,
2013-04-30 17:32:00,84.4,51.2,30.09,North,0,0.0,0.0,32,0.00,,,0.00,WUHU216HW,2013-04-30 22:32:00,
2013-04-30 17:37:00,84.2,50.3,30.10,North,0,0.0,0.0,31,0.00,,,0.00,WUHU216HW,2013-04-30 22:37:00,
2013-04-30 17:42:00,84.1,51.0,30.10,North,0,0.0,0.0,32,0.00,,,0.00,WUHU216HW,2013-04-30 22:42:00,
2013-04-30 17:47:00,84.1,50.1,30.10,North,0,0.0,0.0,31,0.00,,,0.00,WUHU216HW,2013-04-30 22:47:00,
2013-04-30 17:52:00,84.1,51.0,30.11,North,0,0.0,0.0,32,0.00,,,0.00,WUHU216HW,2013-04-30 22:52:00,
2013-04-30 17:57:00,83.9,50.8,30.11,North,0,0.0,0.0,32,0.00,,,0.00,WUHU216HW,2013-04-30 22:57:00,
2013-04-30 18:02:00,83.9,50.0,30.11,North,0,0.0,0.0,31,0.00,,,0.00,WUHU216HW,2013-04-30 23:02:00,
2013-04-30 18:07:00,83.7,49.8,30.11,North,0,0.0,0.0,31,0.00,,,0.00,WUHU216HW,2013-04-30 23:07:00,
2013-04-30 18:12:00,83.5,50.4,30.11,North,0,0.0,0.0,32,0.00,,,0.00,WUHU216HW,2013-04-30 23:12:00,
2013-04-30 18:17:00,83.5,51.2,30.12,North,0,0.0,0.0,33,0.00,,,0.00,WUHU216HW,2013-04-30 23:17:00,
2013-04-30 18:22:00,83.3,51.0,30.12,North,0,0.0,0.0,33,0.00,,,0.00,WUHU216HW,2013-04-30 23:22:00,
2013-04-30 18:27:00,83.0,50.8,30.12,North,0,0.0,0.0,33,0.00,,,0.00,WUHU216HW,2013-04-30 23:27:00,
2013-04-30 18:32:00,82.8,50.6,30.12,North,0,0.0,0.0,33,0.00,,,0.00,WUHU216HW,2013-04-30 23:32:00,
2013-04-30 18:37:00,82.6,50.4,30.12,North,0,0.0,0.0,33,0.00,,,0.00,WUHU216HW,2013-04-30 23:37:00,
2013-04-30 18:42:00,82.4,50.2,30.12,North,0,0.0,0.0,33,0.00,,,0.00,WUHU216HW,2013-04-30 23:42:00,
2013-04-30 18:47:00,82.3,50.1,30.12,North,0,0.0,0.0,33,0.00,,,0.00,WUHU216HW,2013-04-30 23:47:00,
2013-04-30 18:52:00,82.1,50.0,30.12,North,0,0.0,0.0,33,0.00,,,0.00,WUHU216HW,2013-04-30 23:52:00,
2013-04-30 18:57:00,81.9,50.6,30.12,North,0,0.0,0.0,34,0.00,,,0.00,WUHU216HW,2013-04-30 23:57:00,
2013-04-30 19:02:00,81.7,50.4,30.12,North,0,0.0,0.0,34,0.00,,,0.00,WUHU216HW,2013-05-01 00:02:00,
2013-04-30 19:07:00,81.4,51.0,30.12,North,0,0.0,0.0,35,0.00,,,0.00,WUHU216HW,2013-05-01 00:07:00,
2013-04-30 19:12:00,81.0,50.6,30.12,North,0,0.0,0.0,35,0.00,,,0.00,WUHU216HW,2013-05-01 00:12:00,
2013-04-30 19:17:00,81.0,50.6,30.12,North,0,0.0,0.0,35,0.00,,,0.00,WUHU216HW,2013-05-01 00:17:00,
2013-04-30 19:22:00,80.6,51.1,30.12,North,0,0.0,0.0,36,0.00,,,0.00,WUHU216HW,2013-05-01 00:22:00,
2013-04-30 19:27:00,80.5,51.7,30.13,North,0,0.0,0.0,37,0.00,,,0.00,WUHU216HW,2013-05-01 00:27:00,
2013-04-30 19:32:00,80.3,51.6,30.13,North,0,0.0,0.0,37,0.00,,,0.00,WUHU216HW,2013-05-01 00:32:00,
2013-04-30 19:37:00,80.1,51.4,30.13,North,0,0.0,0.0,37,0.00,,,0.00,WUHU216HW,2013-05-01 00:37:00,
2013-04-30 19:42:00,79.6,51.7,30.14,North,0,0.0,0.0,38,0.00,,,0.00,WUHU216HW,2013-05-01 00:42:00,
2013-04-30 19:47:00,79.2,51.3,30.14,North,0,0.0,0.0,38,0.00,,,0.00,WUHU216HW,2013-05-01 00:47:00,
2013-04-30 19:52:00,78.8,51.0,30.14,North,0,0.0,0.0,38,0.00,,,0.00,WUHU216HW,2013-05-01 00:52:00,
2013-04-30 19:57:00,78.5,51.5,30.14,North,0,0.0,0.0,39,0.00,,,0.00,WUHU216HW,2013-05-01 00:57:00,
2013-04-30 20:02:00,78.1,51.1,30.14,North,0,0.0,0.0,39,0.00,,,0.00,WUHU216HW,2013-05-01 01:02:00,
2013-04-30 20:07:00,77.8,50.9,30.14,North,0,0.0,0.0,39,0.00,,,0.00,WUHU216HW,2013-05-01 01:07:00,
2013-04-30 20:12:00,77.4,51.3,30.14,North,0,0.0,0.0,40,0.00,,,0.00,WUHU216HW,2013-05-01 01:12:00,
2013-04-30 20:17:00,77.0,50.9,30.14,North,0,0.0,0.0,40,0.00,,,0.00,WUHU216HW,2013-05-01 01:17:00,
2013-04-30 20:22:00,76.7,50.6,30.14,North,0,0.0,0.0,40,0.00,,,0.00,WUHU216HW,2013-05-01 01:22:00,
2013-04-30 20:27:00,76.1,50.8,30.14,North,0,0.0,0.0,41,0.00,,,0.00,WUHU216HW,2013-05-01 01:27:00,
2013-04-30 20:32:00,75.6,50.9,30.15,North,0,0.0,0.0,42,0.00,,,0.00,WUHU216HW,2013-05-01 01:32:00,
2013-04-30 20:37:00,75.2,50.6,30.15,North,0,0.0,0.0,42,0.00,,,0.00,WUHU216HW,2013-05-01 01:37:00,
2013-04-30 20:42:00,74.9,50.9,30.15,North,0,0.0,0.0,43,0.00,,,0.00,WUHU216HW,2013-05-01 01:42:00,
2013-04-30 20:47:00,74.7,50.7,30.15,North,0,0.0,0.0,43,0.00,,,0.00,WUHU216HW,2013-05-01 01:47:00,
2013-04-30 20:52:00,74.0,50.6,30.16,North,0,0.0,0.0,44,0.00,,,0.00,WUHU216HW,2013-05-01 01:52:00,
2013-04-30 20:57:00,73.6,50.2,30.16,North,0,0.0,0.0,44,0.00,,,0.00,WUHU216HW,2013-05-01 01:57:00,
2013-04-30 21:02:00,73.4,50.7,30.17,North,0,0.0,0.0,45,0.00,,,0.00,WUHU216HW,2013-05-01 02:02:00,
2013-04-30 21:07:00,73.3,50.5,30.17,North,0,0.0,0.0,45,0.00,,,0.00,WUHU216HW,2013-05-01 02:07:00,
2013-04-30 21:12:00,73.1,50.9,30.17,North,0,0.0,0.0,46,0.00,,,0.00,WUHU216HW,2013-05-01 02:12:00,
2013-04-30 21:17:00,72.5,51.0,30.17,North,0,0.0,0.0,47,0.00,,,0.00,WUHU216HW,2013-05-01 02:17:00,
2013-04-30 21:22:00,72.0,50.6,30.17,North,0,0.0,0.0,47,0.00,,,0.00,WUHU216HW,2013-05-01 02:22:00,
2013-04-30 21:27:00,72.0,50.6,30.17,North,0,0.0,0.0,47,0.00,,,0.00,WUHU216HW,2013-05-01 02:27:00,
2013-04-30 21:32:00,71.3,51.1,30.17,North,0,0.0,0.0,49,0.00,,,0.00,WUHU216HW,2013-05-01 02:32:00,
2013-04-30 21:37:00,70.9,50.8,30.17,North,0,0.0,0.0,49,0.00,,,0.00,WUHU216HW,2013-05-01 02:37:00,
2013-04-30 21:42:00,70.9,51.4,30.18,North,0,0.0,0.0,50,0.00,,,0.00,WUHU216HW,2013-05-01 02:42:00,
2013-04-30 21:47:00,70.9,51.4,30.18,North,0,0.0,0.0,50,0.00,,,0.00,WUHU216HW,2013-05-01 02:47:00,
2013-04-30 21:52:00,70.9,51.8,30.18,North,0,0.0,0.0,51,0.00,,,0.00,WUHU216HW,2013-05-01 02:52:00,
2013-04-30 21:57:00,70.9,51.8,30.18,North,0,0.0,0.0,51,0.00,,,0.00,WUHU216HW,2013-05-01 02:57:00,
2013-04-30 22:02:00,70.9,52.4,30.18,North,0,0.0,0.0,52,0.00,,,0.00,WUHU216HW,2013-05-01 03:02:00,
2013-04-30 22:07:00,71.1,52.6,30.18,North,0,0.0,0.0,52,0.00,,,0.00,WUHU216HW,2013-05-01 03:07:00,
2013-04-30 22:12:00,71.1,53.0,30.18,North,0,0.0,0.0,53,0.00,,,0.00,WUHU216HW,2013-05-01 03:12:00,
2013-04-30 22:17:00,71.1,53.6,30.19,North,0,0.0,0.0,54,0.00,,,0.00,WUHU216HW,2013-05-01 03:17:00,
2013-04-30 22:22:00,71.1,53.6,30.19,North,0,0.0,0.0,54,0.00,,,0.00,WUHU216HW,2013-05-01 03:22:00,
2013-04-30 22:27:00,71.3,54.2,30.19,North,0,0.0,0.0,55,0.00,,,0.00,WUHU216HW,2013-05-01 03:27:00,
2013-04-30 22:32:00,71.1,54.1,30.19,North,0,0.0,0.0,55,0.00,,,0.00,WUHU216HW,2013-05-01 03:32:00,
2013-04-30 22:37:00,71.1,54.5,30.20,North,0,0.0,0.0,56,0.00,,,0.00,WUHU216HW,2013-05-01 03:37:00,
2013-04-30 22:42:00,71.1,54.5,30.20,North,0,0.0,0.0,56,0.00,,,0.00,WUHU216HW,2013-05-01 03:42:00,
2013-04-30 22:47:00,71.1,54.5,30.20,North,0,0.0,0.0,56,0.00,,,0.00,WUHU216HW,2013-05-01 03:47:00,
2013-04-30 22:52:00,71.1,54.5,30.20,North,0,0.0,0.0,56,0.00,,,0.00,WUHU216HW,2013-05-01 03:52:00,
2013-04-30 22:57:00,70.9,54.4,30.20,North,0,0.0,0.0,56,0.00,,,0.00,WUHU216HW,2013-05-01 03:57:00,
2013-04-30 23:01:00,70.9,54.9,30.20,North,0,0.0,0.0,57,0.00,,,0.00,WUHU216HW,2013-05-01 04:01:00,
2013-04-30 23:06:00,70.9,54.9,30.20,North,0,0.0,0.0,57,0.00,,,0.00,WUHU216HW,2013-05-01 04:06:00,
2013-04-30 23:11:00,70.9,54.4,30.21,North,0,0.0,0.0,56,0.00,,,0.00,WUHU216HW,2013-05-01 04:11:00,
2013-04-30 23:16:00,70.7,54.3,30.21,North,0,0.0,0.0,56,0.00,,,0.00,WUHU216HW,2013-05-01 04:16:00,
2013-04-30 23:21:00,70.6,54.5,30.21,North,0,0.0,0.0,57,0.00,,,0.00,WUHU216HW,2013-05-01 04:21:00,
2013-04-30 23:26:00,70.6,54.1,30.21,North,0,0.0,0.0,56,0.00,,,0.00,WUHU216HW,2013-05-01 04:26:00,
2013-04-30 23:31:00,70.6,53.6,30.21,North,0,0.0,0.0,55,0.00,,,0.00,WUHU216HW,2013-05-01 04:31:00,
2013-04-30 23:36:00,70.4,53.4,30.22,North,0,0.0,0.0,55,0.00,,,0.00,WUHU216HW,2013-05-01 04:36:00,
2013-04-30 23:41:00,70.4,53.4,30.22,North,0,0.0,0.0,55,0.00,,,0.00,WUHU216HW,2013-05-01 04:41:00,
2013-04-30 23:46:00,70.2,53.3,30.22,North,0,0.0,0.0,55,0.00,,,0.00,WUHU216HW,2013-05-01 04:46:00,
2013-04-30 23:51:00,70.2,53.3,30.22,North,0,0.0,0.0,55,0.00,,,0.00,WUHU216HW,2013-05-01 04:51:00,
2013-04-30 23:56:00,70.0,53.1,30.22,North,0,0.0,0.0,55,0.00,,,0.00,WUHU216HW,2013-05-01 04:56:00,